#timestamp,LO_Frequency,Hit 
1505628015.3,286046997.9,N
1505628035.2,286046997.6,N
1505628055.0,286046997.1,N
1505628055.9,286046997.1,N
1505628075.7,286046995.3,N
1505628095.6,286046999.5,N
1505628115.4,286046996.8,N
1505628135.2,286046998.4,N
1505628155.1,286047002.4,N
1505628156.0,286047002.4,N
1505628175.8,286047003.2,N
1505628195.6,286047000.1,N
1505628215.5,286047001.3,N
1505628235.3,286047002.2,N
1505628255.1,286046999.9,N
1505628275.9,286047000.1,N
1505628295.7,286047000.5,N
1505628315.5,286046994.9,N
1505628335.4,286046994.9,N
1505628355.2,286046996.3,N
1505628375.0,286046994.0,N
1505628375.9,286046994.0,N
1505628395.8,286046993.4,N
1505628415.6,286046997.6,N
1505628435.4,286046997.6,N
1505628455.2,286046995.1,N
1505628475.1,286046996.6,N
1505628476.0,286046996.6,N
1505628495.8,286046998.3,N
1505628515.6,286046999.7,N
1505628535.5,286047002.0,N
1505628555.3,286047002.5,N
1505628575.1,286047000.8,N
1505628595.9,286046999.9,N
1505628615.7,286046998.2,N
1505628635.5,286046999.2,N
1505628655.4,286046998.6,N
1505628675.2,286046999.0,N
1505628695.0,286046996.8,N
1505628695.9,286046996.8,N
1505628715.8,286047000.7,N
1505628735.6,286047002.7,N
1505628755.4,286047001.8,N
1505628775.2,286046998.9,N
1505628795.1,286046999.7,N
1505628796.0,286046999.7,N
1505628815.8,286046998.5,N
1505628835.6,286047002.8,N
1505628855.5,286047004.1,N
1505628875.3,286047002.9,N
1505628895.1,286047001.6,N
1505628915.9,286046998.3,N
1505628935.7,286047003.9,N
1505628955.5,286047006.0,N
1505628975.4,286046996.6,N
1505628995.2,286046999.3,N
1505629015.0,286046992.3,P
1505629015.9,286046992.3,N
1505629035.8,286046998.0,N
1505629055.6,286046996.6,N
1505629075.4,286046998.3,N
1505629095.3,286046995.7,N
1505629115.1,286046996.0,N
1505629116.0,286046996.0,N
1505629135.8,286046999.4,N
1505629155.7,286047000.5,N
1505629175.5,286046999.9,N
1505629195.3,286046996.5,N
1505629215.1,286047000.6,N
1505629235.9,286046997.0,N
1505629255.7,286046998.2,N
1505629275.5,286047003.1,N
1505629295.4,286047004.2,N
1505629315.2,286046998.5,N
1505629335.0,286046999.6,N
1505629335.9,286046999.6,N
1505629355.8,286046999.0,N
1505629375.6,286046998.7,N
1505629395.4,286046998.3,N
1505629415.3,286046998.9,N
1505629435.1,286046998.5,N
1505629436.0,286046998.5,N
1505629455.8,286047002.4,N
1505629475.7,286047001.0,N
1505629495.5,286046998.8,N
1505629515.3,286047000.1,N
1505629535.2,286047000.0,N
1505629555.9,286046995.5,N
1505629575.7,286046998.9,N
1505629595.5,286047000.5,N
1505629615.4,286046998.1,N
1505629635.2,286046998.7,N
1505629655.0,286047000.7,N
1505629655.9,286047000.7,N
1505629675.8,286046996.7,N
1505629695.6,286046995.7,N
1505629715.4,286046994.4,N
1505629735.3,286046995.6,N
1505629755.1,286046994.5,N
1505629775.8,286046991.0,P
1505629795.7,286046992.5,N
1505629815.5,286046993.7,N
1505629835.3,286046993.1,N
1505629855.2,286046995.3,N
1505629875.9,286046997.4,N
1505629895.7,286046998.1,N
1505629915.6,286046995.3,N
1505629935.4,286046996.9,N
1505629955.2,286046997.3,N
1505629975.1,286046999.3,N
1505629976.0,286046999.3,N
1505629995.8,286046997.1,N
1505630015.6,286046997.5,N
1505630035.5,286046996.7,N
1505630055.3,286046998.5,N
1505630075.1,286046999.6,N
1505630095.8,286046997.5,N
1505630115.7,286046997.2,N
1505630135.5,286046997.6,N
1505630155.3,286046995.3,N
1505630175.2,286046994.1,N
1505630195.9,286046995.4,N
1505630215.7,286046999.8,N
1505630235.6,286047000.6,N
1505630255.4,286047000.0,N
1505630275.2,286046998.5,N
1505630295.1,286046997.5,N
1505630296.0,286046997.5,N
1505630315.8,286046994.6,N
1505630335.6,286046995.7,N
1505630355.5,286046995.0,N
1505630375.3,286046999.2,N
1505630395.1,286046998.5,N
1505630415.8,286047004.3,N
1505630435.7,286047002.5,N
1505630455.5,286047002.0,N
1505630475.3,286047000.5,N
1505630495.2,286047001.1,N
1505630515.0,286046994.9,N
1505630515.9,286046994.9,N
1505630535.7,286046996.4,N
1505630555.6,286046999.0,N
1505630575.4,286046996.9,N
1505630595.2,286046996.0,N
1505630615.1,286046995.6,N
1505630616.0,286046995.6,N
1505630635.8,286046999.5,N
1505630655.6,286046997.6,N
1505630675.5,286046995.8,N
1505630695.3,286046994.9,N
1505630715.1,286046993.3,N
1505630735.9,286046993.4,N
1505630755.7,286046994.6,N
1505630775.5,286046992.0,N
1505630795.3,286046991.8,N
1505630815.2,286046993.4,N
1505630835.0,286046993.9,N
1505630835.9,286046993.9,N
1505630855.7,286046997.4,N
1505630875.6,286047000.3,N
1505630895.4,286047000.7,N
1505630915.2,286046999.6,N
1505630935.1,286046995.2,N
1505630936.0,286046995.2,N
1505630955.8,286046995.7,N
1505630975.6,286046995.0,N
1505630995.5,286046997.5,N
1505631015.3,286046998.7,N
1505631035.1,286047000.0,N
1505631055.9,286047002.8,N
1505631075.7,286047002.6,N
1505631095.5,286047002.3,N
1505631115.4,286047000.9,N
1505631135.2,286046998.9,N
1505631155.0,286046996.9,N
1505631155.9,286046996.9,N
1505631175.7,286047002.2,N
1505631195.6,286047000.1,N
1505631215.4,286047000.3,N
1505631235.3,286046999.2,N
1505631255.1,286046997.2,N
1505631256.0,286046997.2,N
1505631275.8,286046999.1,N
1505631295.7,286046996.7,N
1505631315.5,286046993.3,N
1505631335.3,286046992.0,N
1505631355.2,286046992.1,N
1505631375.9,286046993.7,N
1505631395.7,286046994.7,N
1505631415.6,286046990.7,P
1505631435.4,286046990.1,N
1505631455.2,286046993.1,N
1505631475.0,286046994.0,N
1505631476.0,286046994.0,N
1505631495.8,286046989.2,P
1505631515.6,286046995.2,N
1505631535.5,286046995.5,N
1505631555.3,286046998.0,N
1505631575.1,286046995.2,N
1505631595.9,286046993.4,N
